This is the latest recevied weather packets stored in our database for station/object G4MDP-13. If no packets are shown the sender has not sent any weather packets the latest 10 day(s).
| Time | Temp. | Humidity | Pressure | Rain* | Wind** | Luminosity | Snow |
|---|---|---|---|---|---|---|---|
| 1777795485 | 15° C | 82% | 1003.9 hPa | 0 mm | - | - | - |
| 1777795426 | 15° C | 82% | 1004 hPa | 0 mm | - | - | - |
| 1777794525 | 14.44° C | 83% | 1004 hPa | 0 mm | - | - | - |
| 1777793685 | 13.89° C | 86% | 1003.9 hPa | 0 mm | - | - | - |
| 1777793626 | 13.89° C | 86% | 1003.9 hPa | 0 mm | - | - | - |
| 1777792725 | 13.33° C | 91% | 1004 hPa | 0 mm | - | - | - |
| 1777791885 | 13.33° C | 94% | 1004 hPa | 0 mm | - | - | - |
| 1777791826 | 13.33° C | 94% | 1004.3 hPa | 0 mm | - | - | - |
| 1777790925 | 12.78° C | 95% | 1003.9 hPa | 0 mm | - | - | - |
| 1777790085 | 12.78° C | 96% | 1003.9 hPa | 0 mm | - | - | - |
| 1777790026 | 12.78° C | 96% | 1003.9 hPa | 0 mm | - | - | - |
| 1777789125 | 12.22° C | 96% | 1003.6 hPa | 0 mm | - | - | - |
| 1777788285 | 12.22° C | 96% | 1003.7 hPa | 0 mm | - | - | - |
| 1777788226 | 12.22° C | 96% | 1003.7 hPa | 0 mm | - | - | - |
| 1777787325 | 12.22° C | 96% | 1003.5 hPa | 0 mm | - | - | - |
| 1777786485 | 11.67° C | 95% | 1003.3 hPa | 0 mm | - | - | - |
| 1777786426 | 12.22° C | 95% | 1003.3 hPa | 0 mm | - | - | - |
| 1777785525 | 12.22° C | 95% | 1003.3 hPa | 0 mm | - | - | - |
| 1777784685 | 12.22° C | 95% | 1003.4 hPa | 0 mm | - | - | - |
| 1777784626 | 12.22° C | 95% | 1003.5 hPa | 0 mm | - | - | - |
| 1777783725 | 12.22° C | 95% | 1003.5 hPa | 0 mm | - | - | - |
| 1777782885 | 12.78° C | 95% | 1003.5 hPa | 0 mm | - | - | - |
| 1777782826 | 12.78° C | 95% | 1003.4 hPa | 0 mm | - | - | - |
| 1777781925 | 12.78° C | 95% | 1003.5 hPa | 0 mm | - | - | - |
| 1777781085 | 12.78° C | 95% | 1003.7 hPa | 0 mm | - | - | - |
* Rain latest hour (hover to see other rain measurements)
** Current wind speed in m/s (hover to see current wind gust speed)